| time (UTC) | temp F | wind direction | speed MPH | gust MPH | rain 1hr in | rain 24hr in | rain mn in | humidity % | barometer mb |
| 20260508102508 | 52 | 175 | 6.0 | 12.0 | 0.00 | 0.01 | 0.01 | 83 | 1025.8 |
| 20260508102004 | 52 | 180 | 8.0 | 12.0 | 0.00 | 0.01 | 0.01 | 84 | 1025.7 |
| 20260508101008 | 52 | 180 | 8.0 | 15.0 | 0.00 | 0.01 | 0.01 | 84 | 1025.6 |
| 20260508100510 | 52 | 180 | 6.0 | 15.0 | 0.00 | 0.01 | 0.01 | 83 | 1025.6 |
| 20260508095507 | 52 | 194 | 6.0 | 12.0 | 0.00 | 0.01 | 0.01 | 83 | 1025.6 |
| 20260508095013 | 52 | 189 | 6.0 | 12.0 | 0.00 | 0.01 | 0.01 | 82 | 1025.5 |
| 20260508094512 | 52 | 170 | 6.0 | 12.0 | 0.00 | 0.01 | 0.01 | 82 | 1025.7 |
| 20260508094007 | 52 | 168 | 7.0 | 12.0 | 0.00 | 0.01 | 0.01 | 82 | 1025.6 |
| 20260508093507 | 52 | 172 | 5.0 | 11.0 | 0.00 | 0.01 | 0.01 | 82 | 1025.5 |
| 20260508093018 | 52 | 199 | 7.0 | 11.0 | 0.00 | 0.01 | 0.01 | 81 | 1025.4 |
| 20260508092008 | 52 | 180 | 7.0 | 10.0 | 0.00 | 0.01 | 0.01 | 80 | 1025.4 |
| 20260508091008 | 52 | 185 | 6.0 | 11.0 | 0.00 | 0.01 | 0.01 | 80 | 1025.3 |
| 20260508090508 | 52 | 162 | 8.0 | 11.0 | 0.00 | 0.01 | 0.01 | 80 | 1025.3 |
| 20260508090029 | 53 | 185 | 8.0 | 11.0 | 0.00 | 0.01 | 0.01 | 80 | 1025.3 |
| 20260508085508 | 53 | 160 | 6.0 | 11.0 | 0.00 | 0.01 | 0.01 | 80 | 1025.2 |
| 20260508085005 | 53 | 175 | 7.0 | 11.0 | 0.00 | 0.01 | 0.01 | 80 | 1025.2 |
| 20260508084527 | 53 | 165 | 7.0 | 10.0 | 0.00 | 0.01 | 0.01 | 80 | 1025.2 |
| 20260508084013 | 53 | 158 | 6.0 | 9.0 | 0.00 | 0.01 | 0.01 | 80 | 1025.2 |
| 20260508083507 | 53 | 169 | 5.0 | 8.0 | 0.00 | 0.01 | 0.01 | 80 | 1025.1 |
| 20260508083006 | 53 | 165 | 4.0 | 9.0 | 0.00 | 0.01 | 0.01 | 80 | 1025.0 |
| 20260508082503 | 53 | 180 | 5.0 | 12.0 | 0.00 | 0.01 | 0.01 | 80 | 1025.0 |
| 20260508081504 | 53 | 155 | 5.0 | 10.0 | 0.00 | 0.01 | 0.01 | 81 | 1024.8 |
| 20260508081006 | 53 | 166 | 5.0 | 9.0 | 0.00 | 0.01 | 0.01 | 80 | 1024.8 |
| 20260508080503 | 53 | 163 | 4.0 | 6.0 | 0.00 | 0.01 | 0.01 | 80 | 1024.8 |
| 20260508080004 | 53 | 152 | 3.0 | 9.0 | 0.00 | 0.01 | 0.01 | 80 | 1024.7 |
| 20260508075505 | 53 | 162 | 4.0 | 9.0 | 0.00 | 0.01 | 0.01 | 80 | 1024.7 |
| 20260508075004 | 53 | 169 | 5.0 | 10.0 | 0.00 | 0.01 | 0.01 | 80 | 1024.7 |
| 20260508074005 | 53 | 185 | 7.0 | 11.0 | 0.00 | 0.01 | 0.01 | 80 | 1024.6 |
| 20260508073505 | 53 | 175 | 5.0 | 9.0 | 0.00 | 0.01 | 0.01 | 80 | 1024.6 |
| 20260508073011 | 53 | 155 | 5.0 | 10.0 | 0.00 | 0.01 | 0.01 | 80 | 1024.4 |
| 20260508072003 | 53 | 160 | 7.0 | 13.0 | 0.00 | 0.01 | 0.01 | 79 | 1024.2 |
| 20260508071521 | 53 | 160 | 7.0 | 14.0 | 0.00 | 0.01 | 0.01 | 79 | 1024.2 |
| 20260508071003 | 54 | 185 | 8.0 | 15.0 | 0.00 | 0.01 | 0.01 | 79 | 1024.3 |
| 20260508070512 | 54 | 185 | 10.0 | 15.0 | 0.00 | 0.01 | 0.01 | 78 | 1024.2 |
| 20260508070016 | 54 | 180 | 8.0 | 14.0 | 0.00 | 0.01 | 0.01 | 78 | 1024.1 |
| 20260508065504 | 54 | 170 | 11.0 | 14.0 | 0.00 | 0.01 | 0.01 | 78 | 1024.0 |
| 20260508065008 | 54 | 189 | 8.0 | 17.0 | 0.00 | 0.01 | 0.01 | 78 | 1024.1 |
| 20260508064505 | 54 | 172 | 11.0 | 17.0 | 0.00 | 0.01 | 0.01 | 77 | 1024.1 |
| 20260508063505 | 54 | 164 | 7.0 | 12.0 | 0.00 | 0.01 | 0.01 | 77 | 1024.0 |
| 20260508062504 | 54 | 185 | 7.0 | 15.0 | 0.00 | 0.01 | 0.01 | 76 | 1023.9 |
| 20260508062007 | 54 | 159 | 9.0 | 16.0 | 0.00 | 0.01 | 0.01 | 75 | 1023.8 |
| 20260508061507 | 54 | 191 | 11.0 | 16.0 | 0.00 | 0.01 | 0.01 | 75 | 1023.8 |
| 20260508061010 | 55 | 167 | 9.0 | 14.0 | 0.00 | 0.01 | 0.01 | 74 | 1023.8 |
| 20260508055508 | 55 | 195 | 8.0 | 14.0 | 0.00 | 0.01 | 0.01 | 74 | 1023.8 |
| 20260508055004 | 55 | 175 | 9.0 | 14.0 | 0.00 | 0.01 | 0.01 | 73 | 1024.0 |
| 20260508054008 | 55 | 149 | 7.0 | 15.0 | 0.00 | 0.01 | 0.01 | 73 | 1023.8 |
| 20260508053504 | 55 | 158 | 11.0 | 15.0 | 0.00 | 0.01 | 0.01 | 72 | 1023.8 |
| 20260508053020 | 55 | 164 | 8.0 | 16.0 | 0.00 | 0.01 | 0.01 | 73 | 1023.6 |
| 20260508052510 | 55 | 194 | 10.0 | 16.0 | 0.00 | 0.01 | 0.01 | 73 | 1023.6 |
| 20260508050508 | 56 | 154 | 10.0 | 16.0 | 0.00 | 0.01 | 0.01 | 74 | 1023.6 |
| 20260508050021 | 56 | 166 | 12.0 | 17.0 | 0.00 | 0.01 | 0.01 | 74 | 1023.7 |
| 20260508045509 | 55 | 189 | 12.0 | 17.0 | 0.00 | 0.01 | 0.01 | 73 | 1023.7 |
| 20260508045008 | 55 | 175 | 11.0 | 17.0 | 0.00 | 0.01 | 0.01 | 74 | 1023.7 |
| 20260508044514 | 55 | 135 | 10.0 | 17.0 | 0.00 | 0.01 | 0.01 | 74 | 1023.7 |
| 20260508044010 | 55 | 175 | 11.0 | 18.0 | 0.00 | 0.01 | 0.01 | 74 | 1023.6 |
| 20260508043010 | 55 | 164 | 10.0 | 16.0 | 0.00 | 0.01 | 0.01 | 73 | 1023.6 |
| 20260508042006 | 56 | 166 | 10.0 | 21.0 | 0.00 | 0.01 | 0.01 | 70 | 1023.4 |
| 20260508041508 | 57 | 195 | 12.0 | 21.0 | 0.00 | 0.01 | 0.01 | 68 | 1023.4 |
| 20260508041007 | 58 | 127 | 11.0 | 20.0 | 0.00 | 0.01 | 0.01 | 67 | 1023.3 |
| 20260508040508 | 57 | 226 | 11.0 | 17.0 | 0.00 | 0.01 | 0.01 | 68 | 1023.3 |
| 20260508040018 | 56 | 224 | 13.0 | 17.0 | 0.00 | 0.01 | 0.01 | 70 | 1023.3 |
| 20260508035507 | 56 | 216 | 11.0 | 17.0 | 0.00 | 0.01 | 0.01 | 72 | 1023.3 |
| 20260508035005 | 56 | 203 | 10.0 | 17.0 | 0.00 | 0.01 | 0.01 | 71 | 1023.3 |
| 20260508034517 | 56 | 175 | 11.0 | 21.0 | 0.00 | 0.01 | 0.01 | 71 | 1023.5 |
| 20260508033510 | 56 | 185 | 13.0 | 20.0 | 0.00 | 0.01 | 0.01 | 70 | 1023.5 |
| 20260508032509 | 56 | 189 | 13.0 | 20.0 | 0.00 | 0.01 | 0.01 | 72 | 1023.5 |
| 20260508031528 | 56 | 253 | 10.0 | 15.0 | 0.00 | 0.01 | 0.01 | 77 | 1023.5 |
| 20260508031010 | 55 | 198 | 10.0 | 15.0 | 0.00 | 0.01 | 0.01 | 80 | 1023.6 |
| 20260508030015 | 54 | 172 | 9.0 | 14.0 | 0.00 | 0.02 | 0.01 | 81 | 1023.7 |
| 20260508025508 | 54 | 191 | 8.0 | 14.0 | 0.00 | 0.02 | 0.01 | 80 | 1023.7 |
| 20260508025005 | 54 | 217 | 8.0 | 19.0 | 0.00 | 0.02 | 0.01 | 79 | 1023.7 |
| 20260508024513 | 55 | 237 | 13.0 | 22.0 | 0.00 | 0.02 | 0.01 | 78 | 1023.7 |
| 20260508024008 | 55 | 229 | 11.0 | 22.0 | 0.00 | 0.02 | 0.01 | 79 | 1024.0 |
| 20260508023508 | 54 | 204 | 10.0 | 19.0 | 0.00 | 0.02 | 0.01 | 81 | 1024.0 |
| 20260508022009 | 53 | 222 | 11.0 | 25.0 | 0.00 | 0.02 | 0.01 | 83 | 1024.2 |
| 20260508020505 | 53 | 199 | 10.0 | 18.0 | 0.00 | 0.01 | 0.00 | 81 | 1024.1 |
| 20260508015506 | 54 | 175 | 10.0 | 20.0 | 0.00 | 0.01 | 0.00 | 83 | 1024.2 |
| 20260508014541 | 53 | 199 | 11.0 | 16.0 | 0.00 | 0.01 | 0.00 | 84 | 1024.4 |
| 20260508014010 | 53 | 237 | 7.0 | 16.0 | 0.00 | 0.01 | 0.00 | 84 | 1024.4 |
| 20260508013508 | 53 | 205 | 11.0 | 19.0 | 0.00 | 0.01 | 0.00 | 83 | 1024.3 |
| 20260508012509 | 53 | 254 | 13.0 | 24.0 | 0.00 | 0.01 | 0.00 | 84 | 1024.3 |
| 20260508012010 | 53 | 207 | 10.0 | 24.0 | 0.00 | 0.01 | 0.00 | 83 | 1024.3 |
| 20260508011522 | 53 | 185 | 12.0 | 24.0 | 0.00 | 0.01 | 0.00 | 83 | 1024.2 |
| 20260508011008 | 53 | 209 | 10.0 | 17.0 | 0.00 | 0.01 | 0.00 | 83 | 1024.2 |
| 20260508010508 | 53 | 218 | 8.0 | 22.0 | 0.00 | 0.01 | 0.00 | 82 | 1024.1 |
| 20260508010027 | 53 | 246 | 12.0 | 22.0 | 0.00 | 0.01 | 0.00 | 80 | 1024.0 |
| 20260508005518 | 53 | 248 | 13.0 | 20.0 | 0.00 | 0.01 | 0.00 | 79 | 1024.1 |
| 20260508003506 | 54 | 208 | 10.0 | 19.0 | 0.00 | 0.01 | 0.00 | 77 | 1024.0 |
| 20260508003050 | 54 | 232 | 12.0 | 19.0 | 0.00 | 0.02 | 0.00 | 77 | 1023.9 |
| 20260508002508 | 54 | 200 | 13.0 | 19.0 | 0.00 | 0.02 | 0.00 | 78 | 1023.9 |
| 20260508001006 | 54 | 228 | 9.0 | 19.0 | 0.00 | 0.03 | 0.00 | 79 | 1023.9 |
| 20260508000513 | 53 | 219 | 9.0 | 19.0 | 0.00 | 0.03 | 0.00 | 79 | 1023.8 |
| 20260507235512 | 53 | 235 | 11.0 | 18.0 | 0.00 | 0.03 | 0.00 | 79 | 1023.6 |
| 20260507235010 | 53 | 210 | 12.0 | 21.0 | 0.00 | 0.03 | 0.00 | 80 | 1023.6 |
| 20260507234525 | 53 | 233 | 13.0 | 21.0 | 0.00 | 0.03 | 0.00 | 80 | 1023.6 |
| 20260507234010 | 53 | 222 | 10.0 | 18.0 | 0.00 | 0.03 | 0.00 | 81 | 1023.5 |
| 20260507233510 | 53 | 229 | 9.0 | 22.0 | 0.00 | 0.03 | 0.00 | 81 | 1023.4 |
| 20260507233003 | 53 | 248 | 12.0 | 22.0 | 0.00 | 0.03 | 0.00 | 81 | 1023.4 |
| 20260507232005 | 52 | 238 | 9.0 | 17.0 | 0.00 | 0.03 | 0.00 | 82 | 1023.5 |
| 20260507231503 | 52 | 236 | 10.0 | 23.0 | 0.00 | 0.05 | 0.00 | 82 | 1023.6 |
| 20260507231006 | 52 | 228 | 14.0 | 23.0 | 0.00 | 0.05 | 0.00 | 82 | 1023.5 |
| 20260507230507 | 52 | 243 | 11.0 | 18.0 | 0.00 | 0.05 | 0.00 | 82 | 1023.5 |
| 20260507224512 | 51 | 229 | 11.0 | 20.0 | 0.00 | 0.05 | 0.00 | 84 | 1023.2 |
| 20260507223503 | 51 | 226 | 15.0 | 23.0 | 0.00 | 0.06 | 0.00 | 84 | 1023.1 |
| 20260507222006 | 51 | 247 | 12.0 | 20.0 | 0.00 | 0.06 | 0.00 | 85 | 1023.1 |
| 20260507221003 | 51 | 229 | 11.0 | 19.0 | 0.00 | 0.06 | 0.00 | 85 | 1023.1 |
| 20260507220511 | 51 | 236 | 13.0 | 19.0 | 0.00 | 0.06 | 0.00 | 85 | 1022.9 |
| 20260507220012 | 51 | 246 | 12.0 | 18.0 | 0.00 | 0.07 | 0.00 | 85 | 1022.8 |
| 20260507215504 | 51 | 225 | 9.0 | 20.0 | 0.00 | 0.08 | 0.00 | 86 | 1022.7 |
| 20260507213504 | 50 | 234 | 12.0 | 18.0 | 0.00 | 0.11 | 0.00 | 87 | 1022.5 |
| 20260507211504 | 51 | 218 | 10.0 | 15.0 | 0.00 | 0.11 | 0.00 | 86 | 1022.2 |
| 20260507210504 | 51 | 249 | 10.0 | 15.0 | 0.00 | 0.11 | 0.00 | 86 | 1022.1 |
| 20260507205507 | 51 | 238 | 7.0 | 18.0 | 0.00 | 0.11 | 0.00 | 86 | 1022.1 |
| 20260507205003 | 51 | 237 | 10.0 | 18.0 | 0.00 | 0.11 | 0.00 | 86 | 1022.1 |
| 20260507204516 | 51 | 230 | 9.0 | 15.0 | 0.00 | 0.11 | 0.00 | 86 | 1022.2 |
| 20260507204005 | 51 | 216 | 10.0 | 17.0 | 0.00 | 0.11 | 0.00 | 86 | 1022.1 |
| 20260507202007 | 51 | 244 | 8.0 | 16.0 | 0.00 | 0.11 | 0.00 | 86 | 1021.7 |
| 20260507201004 | 51 | 236 | 11.0 | 17.0 | 0.00 | 0.11 | 0.00 | 86 | 1021.8 |
| 20260507200010 | 51 | 264 | 8.0 | 17.0 | 0.00 | 0.11 | 0.00 | 86 | 1021.7 |
| 20260507194509 | 51 | 238 | 11.0 | 17.0 | 0.00 | 0.11 | 0.00 | 87 | 1021.8 |
| 20260507193507 | 51 | 224 | 12.0 | 20.0 | 0.00 | 0.11 | 0.00 | 87 | 1021.7 |
| 20260507193006 | 51 | 242 | 11.0 | 19.0 | 0.00 | 0.11 | 0.00 | 87 | 1021.7 |
| 20260507192509 | 50 | 226 | 8.0 | 15.0 | 0.00 | 0.11 | 0.00 | 88 | 1021.7 |
| 20260507192006 | 50 | 243 | 7.0 | 14.0 | 0.00 | 0.11 | 0.00 | 88 | 1021.7 |
| 20260507190506 | 50 | 242 | 4.0 | 13.0 | 0.00 | 0.12 | 0.00 | 87 | 1021.6 |
| 20260507185003 | 50 | 246 | 3.0 | 10.0 | 0.00 | 0.11 | 0.00 | 87 | 1021.5 |
| 20260507184515 | 50 | 243 | 3.0 | 10.0 | 0.00 | 0.11 | 0.00 | 87 | 1021.5 |
| 20260507184005 | 50 | 218 | 5.0 | 13.0 | 0.00 | 0.11 | 0.00 | 87 | 1021.4 |
| 20260507183016 | 50 | 237 | 5.0 | 12.0 | 0.00 | 0.11 | 0.00 | 87 | 1021.3 |
| 20260507182506 | 50 | 227 | 5.0 | 11.0 | 0.00 | 0.11 | 0.00 | 86 | 1021.1 |
| 20260507181514 | 50 | 234 | 4.0 | 9.0 | 0.00 | 0.11 | 0.00 | 86 | 1021.1 |
| 20260507181013 | 50 | 242 | 4.0 | 9.0 | 0.00 | 0.11 | 0.00 | 86 | 1021.2 |
| 20260507180508 | 50 | 249 | 4.0 | 7.0 | 0.00 | 0.11 | 0.00 | 85 | 1021.1 |
| 20260507180013 | 50 | 258 | 4.0 | 10.0 | 0.00 | 0.11 | 0.00 | 85 | 1021.1 |
| 20260507175006 | 50 | 246 | 5.0 | 14.0 | 0.00 | 0.11 | 0.00 | 84 | 1021.0 |
| 20260507174510 | 50 | 249 | 6.0 | 14.0 | 0.00 | 0.11 | 0.00 | 84 | 1020.9 |
| 20260507174007 | 50 | 216 | 7.0 | 14.0 | 0.00 | 0.11 | 0.00 | 83 | 1020.9 |
| 20260507173016 | 51 | 241 | 9.0 | 16.0 | 0.00 | 0.11 | 0.00 | 81 | 1020.8 |
| 20260507172006 | 50 | 240 | 7.0 | 11.0 | 0.00 | 0.11 | 0.00 | 81 | 1020.7 |
| 20260507171522 | 50 | 241 | 7.0 | 11.0 | 0.00 | 0.11 | 0.00 | 81 | 1020.8 |
| 20260507171006 | 51 | 226 | 7.0 | 10.0 | 0.00 | 0.11 | 0.00 | 80 | 1020.8 |
| 20260507170507 | 51 | 245 | 6.0 | 13.0 | 0.00 | 0.11 | 0.00 | 80 | 1020.9 |
| 20260507170025 | 51 | 224 | 8.0 | 13.0 | 0.00 | 0.11 | 0.00 | 79 | 1020.8 |
| 20260507165506 | 51 | 225 | 8.0 | 12.0 | 0.00 | 0.11 | 0.00 | 79 | 1020.8 |
| 20260507165007 | 51 | 241 | 7.0 | 18.0 | 0.00 | 0.11 | 0.00 | 79 | 1021.0 |
| 20260507164517 | 51 | 247 | 7.0 | 18.0 | 0.00 | 0.11 | 0.00 | 79 | 1021.0 |
| 20260507164007 | 51 | 249 | 9.0 | 18.0 | 0.00 | 0.11 | 0.00 | 79 | 1021.0 |
| 20260507163507 | 51 | 287 | 9.0 | 18.0 | 0.00 | 0.11 | 0.00 | 79 | 1021.0 |
| 20260507163019 | 51 | 238 | 10.0 | 18.0 | 0.00 | 0.11 | 0.00 | 79 | 1020.9 |
| 20260507162510 | 51 | 280 | 9.0 | 16.0 | 0.00 | 0.11 | 0.00 | 79 | 1021.0 |
| 20260507162008 | 50 | 258 | 9.0 | 16.0 | 0.00 | 0.11 | 0.00 | 79 | 1021.0 |
| 20260507161517 | 50 | 256 | 9.0 | 15.0 | 0.00 | 0.11 | 0.00 | 79 | 1021.1 |
| 20260507160015 | 50 | 209 | 10.0 | 16.0 | 0.00 | 0.11 | 0.00 | 79 | 1021.2 |
| 20260507155011 | 50 | 270 | 7.0 | 11.0 | 0.00 | 0.11 | 0.00 | 80 | 1021.1 |
| 20260507154522 | 50 | 228 | 5.0 | 13.0 | 0.00 | 0.11 | 0.00 | 79 | 1021.1 |
| 20260507154010 | 50 | 241 | 5.0 | 13.0 | 0.00 | 0.11 | 0.00 | 79 | 1021.2 |
| 20260507153507 | 50 | 254 | 8.0 | 14.0 | 0.00 | 0.11 | 0.00 | 79 | 1021.2 |
| 20260507153032 | 50 | 234 | 7.0 | 15.0 | 0.00 | 0.11 | 0.00 | 79 | 1021.1 |
| 20260507152508 | 50 | 231 | 10.0 | 18.0 | 0.00 | 0.11 | 0.00 | 79 | 1021.1 |
| 20260507152009 | 50 | 212 | 9.0 | 18.0 | 0.00 | 0.11 | 0.00 | 78 | 1021.3 |
| 20260507151516 | 50 | 268 | 10.0 | 16.0 | 0.00 | 0.11 | 0.00 | 78 | 1021.3 |
| 20260507150508 | 50 | 247 | 11.0 | 19.0 | 0.00 | 0.11 | 0.00 | 78 | 1021.3 |
| 20260507150021 | 50 | 235 | 9.0 | 19.0 | 0.00 | 0.11 | 0.00 | 78 | 1021.3 |
| 20260507145507 | 50 | 244 | 9.0 | 16.0 | 0.00 | 0.11 | 0.00 | 77 | 1021.4 |
| 20260507145009 | 50 | 235 | 8.0 | 16.0 | 0.00 | 0.11 | 0.00 | 77 | 1021.3 |
| 20260507144522 | 50 | 262 | 7.0 | 13.0 | 0.00 | 0.11 | 0.00 | 77 | 1021.4 |
| 20260507144010 | 50 | 247 | 7.0 | 13.0 | 0.00 | 0.11 | 0.00 | 77 | 1021.5 |
| 20260507143508 | 50 | 252 | 7.0 | 15.0 | 0.00 | 0.11 | 0.00 | 77 | 1021.5 |
| 20260507143010 | 50 | 256 | 8.0 | 15.0 | 0.00 | 0.11 | 0.00 | 77 | 1021.5 |
| 20260507142003 | 50 | 239 | 5.0 | 12.0 | 0.00 | 0.11 | 0.00 | 78 | 1021.5 |
| 20260507141515 | 50 | 245 | 4.0 | 13.0 | 0.00 | 0.11 | 0.00 | 77 | 1021.4 |
| 20260507141006 | 50 | 249 | 6.0 | 14.0 | 0.00 | 0.11 | 0.00 | 77 | 1021.4 |
| 20260507140025 | 50 | 251 | 9.0 | 12.0 | 0.00 | 0.11 | 0.00 | 77 | 1021.7 |
| 20260507135506 | 50 | 243 | 8.0 | 12.0 | 0.00 | 0.11 | 0.11 | 78 | 1021.7 |
| 20260507135008 | 50 | 260 | 6.0 | 14.0 | 0.00 | 0.11 | 0.11 | 77 | 1021.7 |
| 20260507134505 | 50 | 239 | 8.0 | 14.0 | 0.00 | 0.11 | 0.11 | 77 | 1021.7 |
| 20260507134004 | 50 | 233 | 8.0 | 13.0 | 0.00 | 0.11 | 0.11 | 77 | 1021.7 |
| 20260507133503 | 49 | 287 | 4.0 | 15.0 | 0.00 | 0.11 | 0.11 | 77 | 1021.9 |
| 20260507133007 | 49 | 218 | 6.0 | 15.0 | 0.00 | 0.11 | 0.11 | 77 | 1022.0 |
| 20260507132506 | 49 | 246 | 4.0 | 14.0 | 0.00 | 0.11 | 0.11 | 77 | 1022.1 |
| 20260507132005 | 49 | 243 | 7.0 | 11.0 | 0.00 | 0.11 | 0.11 | 77 | 1022.1 |
| 20260507131512 | 49 | 252 | 3.0 | 9.0 | 0.00 | 0.11 | 0.11 | 77 | 1022.3 |
| 20260507131009 | 49 | 267 | 4.0 | 10.0 | 0.00 | 0.11 | 0.11 | 77 | 1022.3 |
| 20260507130505 | 49 | 245 | 6.0 | 16.0 | 0.00 | 0.11 | 0.11 | 77 | 1022.3 |
| 20260507125510 | 49 | 261 | 6.0 | 15.0 | 0.00 | 0.11 | 0.11 | 76 | 1022.4 |
| 20260507125006 | 49 | 246 | 8.0 | 15.0 | 0.00 | 0.11 | 0.11 | 76 | 1022.4 |
| 20260507124526 | 49 | 251 | 8.0 | 15.0 | 0.00 | 0.11 | 0.11 | 76 | 1022.4 |
| 20260507124009 | 49 | 258 | 5.0 | 17.0 | 0.00 | 0.11 | 0.11 | 76 | 1022.5 |
| 20260507123024 | 49 | 259 | 9.0 | 17.0 | 0.00 | 0.11 | 0.11 | 76 | 1022.6 |
| 20260507122507 | 49 | 257 | 8.0 | 16.0 | 0.00 | 0.11 | 0.11 | 76 | 1022.7 |
| 20260507122006 | 49 | 256 | 10.0 | 16.0 | 0.00 | 0.11 | 0.11 | 76 | 1022.8 |
| 20260507121506 | 49 | 268 | 6.0 | 12.0 | 0.00 | 0.11 | 0.11 | 76 | 1022.7 |
| 20260507121004 | 48 | 262 | 6.0 | 12.0 | 0.00 | 0.11 | 0.11 | 76 | 1022.8 |
| 20260507120503 | 48 | 274 | 7.0 | 12.0 | 0.00 | 0.11 | 0.11 | 76 | 1022.9 |
| 20260507115506 | 48 | 245 | 7.0 | 14.0 | 0.00 | 0.11 | 0.11 | 76 | 1022.9 |
| 20260507115009 | 48 | 272 | 7.0 | 11.0 | 0.00 | 0.11 | 0.11 | 76 | 1023.0 |
| 20260507114511 | 48 | 272 | 7.0 | 10.0 | 0.00 | 0.11 | 0.11 | 76 | 1023.0 |
| 20260507114008 | 48 | 266 | 3.0 | 9.0 | 0.00 | 0.11 | 0.11 | 76 | 1023.0 |
| 20260507113506 | 48 | 264 | 5.0 | 13.0 | 0.00 | 0.11 | 0.11 | 75 | 1022.9 |
| 20260507113004 | 48 | 277 | 6.0 | 13.0 | 0.00 | 0.11 | 0.11 | 75 | 1022.9 |
| 20260507112504 | 48 | 269 | 8.0 | 12.0 | 0.00 | 0.11 | 0.11 | 75 | 1023.0 |
| 20260507112003 | 48 | 267 | 8.0 | 12.0 | 0.00 | 0.11 | 0.11 | 75 | 1023.0 |
| 20260507111507 | 48 | 273 | 4.0 | 12.0 | 0.00 | 0.12 | 0.11 | 75 | 1023.0 |
| 20260507111004 | 48 | 250 | 5.0 | 12.0 | 0.00 | 0.12 | 0.11 | 75 | 1022.9 |
| 20260507110501 | 48 | 238 | 6.0 | 12.0 | 0.00 | 0.12 | 0.11 | 75 | 1023.1 |
| 20260507110011 | 48 | 270 | 5.0 | 12.0 | 0.00 | 0.12 | 0.11 | 75 | 1023.2 |
| 20260507105501 | 48 | 272 | 7.0 | 11.0 | 0.00 | 0.13 | 0.11 | 75 | 1023.1 |
| 20260507105002 | 48 | 243 | 6.0 | 10.0 | 0.00 | 0.14 | 0.11 | 75 | 1023.2 |
| 20260507104504 | 48 | 278 | 4.0 | 9.0 | 0.00 | 0.14 | 0.11 | 74 | 1023.2 |
| 20260507104001 | 48 | 245 | 6.0 | 11.0 | 0.00 | 0.15 | 0.11 | 75 | 1023.3 |
| 20260507103503 | 48 | 250 | 5.0 | 11.0 | 0.00 | 0.16 | 0.11 | 75 | 1023.6 |
| 20260507103008 | 48 | 239 | 5.0 | 11.0 | 0.00 | 0.16 | 0.11 | 75 | 1023.6 |